N3HBJ Weather Reports


Display with metric or nautical units.
time (UTC)temp
F
wind
direction
speed
MPH
gust
MPH
rain 1hr
in
rain 24hr
in
rain mn
in
humidity
%
barometer
mb
20260506005322 61 148 0.0 0.0 0.00 0.00 0.00 78 1008.4
20260506004822 62 148 0.0 0.0 0.00 0.00 0.00 77 1008.4
20260506004325 62 148 0.0 0.0 0.00 0.00 0.00 77 1008.3
20260506004049 62 148 0.0 0.0 0.00 0.00 0.00 76 1008.4
20260506003324 62 148 0.0 0.0 0.00 0.00 0.00 76 1008.4
20260506002822 63 148 0.0 0.0 0.00 0.00 0.00 75 1008.6
20260506002320 63 148 0.0 0.0 0.00 0.00 0.00 75 1008.4
20260506001820 64 148 0.0 0.0 0.00 0.00 0.00 74 1008.3
20260506001320 64 148 0.0 0.0 0.00 0.00 0.00 74 1008.4
20260506000821 64 148 0.0 0.0 0.00 0.00 0.00 73 1008.3
20260506000323 65 148 0.0 0.0 0.00 0.00 0.00 73 1008.1
20260505235820 65 148 0.0 0.0 0.00 0.00 0.00 71 1008.2
20260505235318 65 148 0.0 0.0 0.00 0.00 0.00 72 1008.3
20260505234818 65 148 0.0 0.0 0.00 0.00 0.00 72 1008.3
20260505234318 66 148 0.0 0.0 0.00 0.00 0.00 72 1008.4
20260505233822 67 148 0.0 0.0 0.00 0.00 0.00 71 1008.2
20260505233818 66 148 0.0 0.0 0.00 0.00 0.00 71 1008.3
20260505232816 67 148 0.0 0.0 0.00 0.00 0.00 69 1008.1
20260505232316 67 148 0.0 0.0 0.00 0.00 0.00 68 1008.0
20260505231829 68 148 0.0 0.0 0.00 0.00 0.00 67 1008.0
20260505231315 68 148 0.0 0.0 0.00 0.00 0.00 67 1008.0
20260505230817 68 148 0.0 0.0 0.00 0.00 0.00 64 1007.9
20260505230316 69 148 0.0 0.0 0.00 0.00 0.00 64 1007.9
20260505225816 69 148 0.0 0.0 0.00 0.00 0.00 63 1007.9
20260505225539 69 148 0.0 1.0 0.00 0.00 0.00 63 1007.9
20260505224813 69 148 0.0 1.0 0.00 0.00 0.00 63 1008.0
20260505224312 69 148 0.0 0.0 0.00 0.00 0.00 66 1008.0
20260505223812 69 148 0.0 0.0 0.00 0.00 0.00 65 1008.1
20260505223312 69 148 0.0 0.0 0.00 0.00 0.00 63 1008.2
20260505223032 69 148 0.0 3.0 0.00 0.00 0.00 62 1008.2
20260505222312 69 148 0.0 3.0 0.00 0.00 0.00 63 1008.2
20260505221812 68 53 0.0 2.0 0.00 0.00 0.00 62 1008.2
20260505221313 68 53 0.0 2.0 0.00 0.00 0.00 64 1008.1
20260505221035 68 53 0.0 3.0 0.00 0.00 0.00 63 1008.2
20260505220312 68 53 0.0 5.0 0.00 0.00 0.00 63 1008.2
20260505215813 68 82 0.0 5.0 0.00 0.00 0.00 64 1008.3
20260505215309 68 169 0.0 4.0 0.00 0.00 0.00 65 1008.3
20260505214810 68 152 0.0 3.0 0.00 0.00 0.00 65 1008.3
20260505214308 67 267 0.0 2.0 0.00 0.00 0.00 67 1008.3
20260505213808 67 146 0.0 1.0 0.00 0.00 0.00 66 1008.3
20260505213307 67 146 0.0 1.0 0.00 0.00 0.00 67 1008.3
20260505212804 67 146 0.0 3.0 0.00 0.00 0.00 65 1008.3
20260505212306 67 146 1.0 3.0 0.00 0.00 0.00 65 1008.6
20260505211803 67 122 1.0 3.0 0.00 0.00 0.00 66 1008.4
20260505211301 67 96 1.0 3.0 0.00 0.00 0.00 68 1008.6
20260505210800 67 100 0.0 3.0 0.00 0.00 0.00 66 1008.4
20260505210258 67 106 0.0 6.0 0.00 0.00 0.00 66 1008.3
20260505205756 67 161 1.0 6.0 0.00 0.00 0.00 68 1008.4
20260505205255 67 153 1.0 5.0 0.00 0.00 0.00 64 1008.3
20260505204753 68 129 1.0 9.0 0.00 0.00 0.00 64 1008.3
20260505204250 70 122 2.0 9.0 0.00 0.00 0.00 58 1008.2
20260505203749 71 86 3.0 12.0 0.00 0.00 0.00 52 1008.2
20260505203250 71 90 3.0 12.0 0.00 0.00 0.00 51 1008.1
20260505202751 72 75 1.0 9.0 0.00 0.00 0.00 49 1007.9
20260505202250 72 110 3.0 11.0 0.00 0.00 0.00 48 1007.9
20260505201748 72 150 3.0 11.0 0.00 0.00 0.00 49 1008.0
20260505201250 72 159 3.0 11.0 0.00 0.00 0.00 47 1007.8
20260505200747 72 197 3.0 13.0 0.00 0.00 0.00 47 1007.9
20260505200248 72 113 4.0 13.0 0.00 0.00 0.00 47 1007.8
20260505195747 73 157 3.0 10.0 0.00 0.00 0.00 48 1007.8
20260505195248 72 100 2.0 9.0 0.00 0.00 0.00 48 1007.9
20260505194747 72 135 1.0 7.0 0.00 0.00 0.00 48 1007.9
20260505194249 72 172 2.0 7.0 0.00 0.00 0.00 49 1007.9
20260505193746 72 177 4.0 14.0 0.00 0.00 0.00 49 1007.9
20260505193249 72 184 5.0 16.0 0.00 0.00 0.00 47 1008.0
20260505192743 73 51 6.0 16.0 0.00 0.00 0.00 45 1008.2
20260505192244 73 216 6.0 17.0 0.00 0.00 0.00 44 1008.2
20260505191741 73 112 5.0 17.0 0.00 0.00 0.00 43 1007.9
20260505191503 73 106 3.0 13.0 0.00 0.00 0.00 44 1008.0
20260505190740 73 72 5.0 21.0 0.00 0.00 0.00 43 1007.9
20260505190242 73 84 5.0 21.0 0.00 0.00 0.00 43 1008.0
20260505185739 73 71 3.0 12.0 0.00 0.00 0.00 43 1007.9
20260505185240 74 160 4.0 13.0 0.00 0.00 0.00 42 1008.0
20260505184739 74 91 6.0 15.0 0.00 0.00 0.00 42 1008.0
20260505184242 74 88 5.0 15.0 0.00 0.00 0.00 42 1008.0
20260505183959 74 63 5.0 15.0 0.00 0.00 0.00 41 1007.9
20260505183240 74 71 4.0 14.0 0.00 0.00 0.00 44 1007.8
20260505183000 74 232 2.0 10.0 0.00 0.00 0.00 43 1007.6
20260505182722 74 178 3.0 14.0 0.00 0.00 0.00 44 1007.6
20260505181959 74 130 3.0 14.0 0.00 0.00 0.00 45 1007.6
20260505181506 73 69 5.0 20.0 0.00 0.00 0.00 43 1007.7
20260505180744 73 91 5.0 20.0 0.00 0.00 0.00 42 1007.7
20260505180239 73 106 3.0 12.0 0.00 0.00 0.00 44 1007.6
20260505175738 73 99 4.0 11.0 0.00 0.00 0.00 43 1007.6
20260505175238 72 110 5.0 11.0 0.00 0.00 0.00 44 1007.8
20260505174738 72 81 5.0 12.0 0.00 0.00 0.00 43 1007.8
20260505174238 73 76 5.0 13.0 0.00 0.00 0.00 43 1007.9
20260505173954 73 158 5.0 14.0 0.00 0.00 0.00 42 1007.9
20260505173456 73 60 6.0 17.0 0.00 0.00 0.00 42 1008.0
20260505172731 72 149 7.0 17.0 0.00 0.00 0.00 42 1008.0
20260505172230 72 124 7.0 19.0 0.00 0.00 0.00 44 1008.3
20260505171730 73 175 7.0 19.0 0.00 0.00 0.00 43 1008.3
20260505171454 73 58 7.0 15.0 0.00 0.00 0.00 42 1008.3
20260505170731 73 92 7.0 19.0 0.00 0.00 0.00 43 1008.3
20260505170230 73 42 6.0 19.0 0.00 0.00 0.00 42 1008.3
20260505165953 73 68 7.0 15.0 0.00 0.00 0.00 45 1008.3
20260505165233 72 178 9.0 28.0 0.00 0.00 0.00 44 1008.4
20260505164729 72 134 7.0 28.0 0.00 0.00 0.00 44 1008.6
20260505164232 72 128 8.0 29.0 0.00 0.00 0.00 45 1008.3
20260505163954 72 101 7.0 29.0 0.00 0.00 0.00 44 1008.4
20260505163235 72 101 5.0 15.0 0.00 0.00 0.00 46 1008.4
20260505162729 71 87 5.0 17.0 0.00 0.00 0.00 48 1008.4
20260505162229 71 78 5.0 17.0 0.00 0.00 0.00 46 1008.3
20260505161727 71 80 5.0 17.0 0.00 0.00 0.00 47 1008.6
20260505161227 71 85 6.0 17.0 0.00 0.00 0.00 48 1008.6
20260505160728 71 37 5.0 17.0 0.00 0.00 0.00 47 1008.7
20260505160709 71 153 5.0 19.0 0.00 0.00 0.00 48 1008.6
20260505153227 71 203 7.0 22.0 0.00 0.00 0.00 49 1009.2
20260505152727 71 136 5.0 18.0 0.00 0.00 0.00 48 1009.2
20260505152227 70 59 5.0 17.0 0.00 0.00 0.00 50 1009.3
20260505151943 70 140 6.0 17.0 0.00 0.00 0.00 49 1009.3
20260505151226 70 242 5.0 20.0 0.00 0.00 0.00 51 1009.4
20260505150945 70 167 5.0 20.0 0.00 0.00 0.00 51 1009.3
20260505150225 70 150 4.0 16.0 0.00 0.00 0.00 50 1009.3
20260505140225 70 165 7.0 20.0 0.00 0.00 0.00 50 1009.0
20260505130225 68 51 6.0 17.0 0.00 0.00 0.00 55 1009.0
20260505124724 67 137 5.0 14.0 0.00 0.00 0.00 56 1009.1
20260505124227 67 79 4.0 13.0 0.00 0.00 0.00 58 1009.2
20260505123726 67 165 3.0 11.0 0.00 0.00 0.00 57 1009.1
20260505123227 67 98 3.0 11.0 0.00 0.00 0.00 56 1009.1
20260505122724 67 137 3.0 11.0 0.00 0.00 0.00 58 1009.1
20260505122224 66 86 4.0 11.0 0.00 0.00 0.00 58 1009.2
20260505121725 66 111 3.0 13.0 0.00 0.00 0.00 57 1009.2
20260505121222 66 135 4.0 13.0 0.00 0.00 0.00 58 1009.3
20260505120725 66 110 6.0 16.0 0.00 0.00 0.00 59 1009.2
20260505120222 65 145 5.0 16.0 0.00 0.00 0.00 58 1009.4
20260505115724 65 79 3.0 9.0 0.00 0.00 0.00 60 1009.4
20260505115222 65 80 3.0 14.0 0.00 0.00 0.00 59 1009.4
20260505114721 64 123 4.0 14.0 0.00 0.00 0.00 60 1009.4
20260505114445 64 111 5.0 14.0 0.00 0.00 0.00 60 1009.4
20260505113721 64 78 4.0 14.0 0.00 0.00 0.00 61 1009.2
20260505113224 64 114 4.0 16.0 0.00 0.00 0.00 61 1009.2
20260505112942 64 91 4.0 16.0 0.00 0.00 0.00 61 1009.2
20260505112221 64 82 3.0 9.0 0.00 0.00 0.00 61 1009.2
20260505111721 63 161 3.0 12.0 0.00 0.00 0.00 61 1009.2
20260505111233 63 165 3.0 12.0 0.00 0.00 0.00 61 1009.1
20260505110721 63 145 3.0 9.0 0.00 0.00 0.00 62 1009.0
20260505110220 63 130 2.0 9.0 0.00 0.00 0.00 61 1008.9
20260505102213 62 143 2.0 10.0 0.00 0.00 0.00 61 1008.6
20260505101710 62 80 2.0 10.0 0.00 0.00 0.00 61 1008.6
20260505101211 62 92 3.0 11.0 0.00 0.00 0.00 62 1008.3
20260505100933 62 103 2.0 11.0 0.00 0.00 0.00 62 1008.3
20260505100212 62 84 3.0 8.0 0.00 0.00 0.00 62 1008.3
20260505095706 62 81 2.0 8.0 0.00 0.00 0.00 63 1008.3
20260505095207 62 52 2.0 10.0 0.00 0.00 0.00 63 1008.2
20260505094707 62 84 2.0 10.0 0.00 0.00 0.00 63 1008.2
20260505094206 62 98 3.0 10.0 0.00 0.00 0.00 63 1008.1
20260505093707 62 55 4.0 10.0 0.00 0.00 0.00 63 1008.2
20260505093205 62 77 3.0 10.0 0.00 0.00 0.00 63 1008.3
20260505092703 62 83 3.0 11.0 0.00 0.00 0.00 63 1008.2
20260505092428 62 75 3.0 11.0 0.00 0.00 0.00 62 1008.3
20260505091700 62 84 3.0 10.0 0.00 0.00 0.00 62 1008.3
20260505091419 62 91 3.0 10.0 0.00 0.00 0.00 62 1008.3
20260505090648 62 113 1.0 7.0 0.00 0.00 0.00 62 1008.3
20260505090147 62 84 1.0 6.0 0.00 0.00 0.00 62 1008.3
20260505085644 62 116 1.0 6.0 0.00 0.00 0.00 61 1008.4
20260505085144 62 82 1.0 5.0 0.00 0.00 0.00 62 1008.6
20260505084645 62 104 0.0 4.0 0.00 0.00 0.00 62 1008.7
20260505084144 62 178 0.0 5.0 0.00 0.00 0.00 61 1008.7
20260505083644 62 147 0.0 5.0 0.00 0.00 0.00 61 1008.6
20260505083145 63 193 0.0 2.0 0.00 0.00 0.00 61 1008.4
20260505082642 63 148 0.0 4.0 0.00 0.00 0.00 60 1008.1
20260505082141 63 120 1.0 9.0 0.00 0.00 0.00 59 1007.8
20260505081643 63 127 2.0 9.0 0.00 0.00 0.00 59 1007.9
20260505081141 63 76 1.0 6.0 0.00 0.00 0.00 59 1007.8
20260505080641 63 100 1.0 5.0 0.00 0.00 0.00 60 1007.8
20260505080141 63 78 1.0 8.0 0.00 0.00 0.00 60 1007.8
20260505075641 63 88 1.0 8.0 0.00 0.00 0.00 62 1007.8
20260505075140 63 109 1.0 4.0 0.00 0.00 0.00 61 1007.9
20260505074640 63 109 1.0 4.0 0.00 0.00 0.00 62 1007.9
20260505074140 63 110 1.0 6.0 0.00 0.00 0.00 62 1007.7
20260505073641 63 82 1.0 7.0 0.00 0.00 0.00 62 1007.7
20260505073141 63 127 1.0 7.0 0.00 0.00 0.00 61 1007.6
20260505072640 64 120 2.0 16.0 0.00 0.00 0.00 61 1007.7
20260505072140 63 84 4.0 16.0 0.00 0.00 0.00 61 1007.6
20260505071641 62 92 3.0 13.0 0.00 0.00 0.00 63 1007.7
20260505071140 61 132 1.0 7.0 0.00 0.00 0.00 64 1007.8
20260505070858 60 96 1.0 7.0 0.00 0.00 0.00 66 1007.8
20260505070142 59 104 0.0 4.0 0.00 0.00 0.00 67 1007.7
20260505065640 59 146 0.0 4.0 0.00 0.00 0.00 68 1007.6
20260505065142 58 111 0.0 4.0 0.00 0.00 0.00 70 1007.6
20260505064638 57 111 0.0 4.0 0.00 0.00 0.00 71 1007.6
20260505064138 56 121 0.0 6.0 0.00 0.00 0.00 73 1007.6
20260505063638 55 121 0.0 6.0 0.00 0.00 0.00 75 1007.7
20260505063136 54 80 0.0 0.0 0.00 0.00 0.00 77 1007.7
20260505062634 53 80 0.0 0.0 0.00 0.00 0.00 78 1007.7
20260505062134 53 80 0.0 1.0 0.00 0.00 0.00 78 1007.8
20260505061858 53 80 0.0 1.0 0.00 0.00 0.00 78 1007.8
20260505061135 53 80 0.0 0.0 0.00 0.00 0.00 78 1007.8
20260505060855 54 80 0.0 0.0 0.00 0.00 0.00 77 1007.8
20260505060132 54 80 0.0 0.0 0.00 0.00 0.00 77 1007.9
20260505055856 54 80 0.0 0.0 0.00 0.00 0.00 77 1007.9
20260505055130 55 80 0.0 0.0 0.00 0.00 0.00 76 1008.0
20260505054628 55 80 0.0 0.0 0.00 0.00 0.00 75 1008.0
20260505054352 56 80 0.0 0.0 0.00 0.00 0.00 75 1008.0
20260505053629 56 80 0.0 0.0 0.00 0.00 0.00 73 1008.0
20260505053128 57 80 0.0 0.0 0.00 0.00 0.00 72 1008.1
20260505052626 57 80 0.0 0.0 0.00 0.00 0.00 71 1008.1
20260505052127 58 80 0.0 0.0 0.00 0.00 0.00 70 1008.2
20260505051628 58 80 0.0 0.0 0.00 0.00 0.00 69 1008.2
20260505051126 59 80 0.0 0.0 0.00 0.00 0.00 68 1008.2
20260505050626 59 80 0.0 0.0 0.00 0.00 0.00 67 1008.2
20260505050139 60 80 0.0 0.0 0.00 0.00 0.00 66 1008.3
20260505041126 59 69 0.0 3.0 0.00 0.00 0.00 69 1008.4
20260505040627 58 69 0.0 0.0 0.00 0.00 0.00 70 1008.4
20260505040124 58 69 0.0 1.0 0.00 0.00 0.00 70 1008.4
20260505035626 58 69 0.0 1.0 0.00 0.00 0.00 69 1008.4
20260505035122 58 69 0.0 0.0 0.00 0.00 0.00 70 1008.4
20260505034622 57 69 0.0 0.0 0.00 0.00 0.00 71 1008.4
20260505034122 57 69 0.0 0.0 0.00 0.00 0.00 72 1008.6
20260505033617 57 69 0.0 0.0 0.00 0.00 0.00 72 1008.6
20260505033118 57 69 0.0 0.0 0.00 0.00 0.00 71 1008.4
20260505032617 58 69 0.0 0.0 0.00 0.00 0.00 72 1008.4
20260505032114 58 69 0.0 0.0 0.00 0.00 0.00 70 1008.4
20260505031612 58 69 0.0 0.0 0.00 0.00 0.00 69 1008.4
20260505031112 59 69 0.0 0.0 0.00 0.00 0.00 69 1008.3
20260505030611 59 69 0.0 0.0 0.00 0.00 0.00 68 1008.3
20260505030116 60 69 0.0 0.0 0.00 0.00 0.00 68 1008.3
20260505025832 60 69 0.0 0.0 0.00 0.00 0.00 67 1008.3
20260505025112 61 69 0.0 3.0 0.00 0.00 0.00 66 1008.4
20260505024612 61 69 0.0 3.0 0.00 0.00 0.00 63 1008.3
20260505024331 61 65 0.0 0.0 0.00 0.00 0.00 65 1008.3
20260505023834 61 65 0.0 3.0 0.00 0.00 0.00 64 1008.3
20260505023110 60 65 0.0 3.0 0.00 0.00 0.00 64 1008.3
20260505022608 60 59 0.0 0.0 0.00 0.00 0.00 66 1008.3
20260505022110 60 59 0.0 1.0 0.00 0.00 0.00 65 1008.4
20260505021607 61 59 0.0 4.0 0.00 0.00 0.00 64 1008.4
20260505021108 61 107 0.0 4.0 0.00 0.00 0.00 64 1008.4
20260505020608 61 47 0.0 1.0 0.00 0.00 0.00 63 1008.3
20260505020108 62 47 0.0 0.0 0.00 0.00 0.00 63 1008.4
20260505015605 62 47 0.0 0.0 0.00 0.00 0.00 62 1008.3
20260505015108 63 47 0.0 1.0 0.00 0.00 0.00 61 1008.4
20260505014605 63 47 0.0 3.0 0.00 0.00 0.00 59 1008.3
20260505014106 64 47 1.0 3.0 0.00 0.00 0.00 59 1008.2
20260505013833 64 46 0.0 3.0 0.00 0.00 0.00 57 1008.1
20260505013106 64 76 0.0 3.0 0.00 0.00 0.00 57 1008.2
20260505012605 65 76 0.0 3.0 0.00 0.00 0.00 56 1008.2
20260505012106 65 74 1.0 6.0 0.00 0.00 0.00 55 1008.2
20260505011606 65 103 2.0 6.0 0.00 0.00 0.00 54 1008.2
20260505011106 66 88 2.0 11.0 0.00 0.00 0.00 53 1008.2
20260505011045 66 85 1.0 11.0 0.00 0.00 0.00 52 1008.3
20260505010105 65 73 0.0 4.0 0.00 0.00 0.00 52 1008.3